User: anonymous   Login
Location: Fontevrault
(47.1823°N, 0.0493°E)
Time: 23:09:05
(UTC+00:00)
Language:

Cosmos 2285 Rocket - Orbit

View from above orbital plane
View from above orbital plane
View from above satellite
View from above satellite

Ground track
Ground track

The orbit data is extracted from the following two-line orbital elements,

1 23190U 94045B   21263.37082231  .00000037  00000-0  62717-4 0  9994
2 23190  74.0300  43.7173 0018939  27.4445 332.7670 13.74107396360729
Epoch (UTC): 20 September 2021 08:53:59
Eccentricity: 0.0018939
inclination: 74.0300°
perigee height: 971 km
apogee height: 999 km
right ascension of ascending node: 43.7173°
argument of perigee: 27.4445°
revolutions per day: 13.74107396
mean anomaly at epoch: 332.7670°
orbit number at epoch: 36072

The dashed part of the orbit path shows where the satellite is in the earth's shadow,  

DLR